Flag for Japan Weather past 2 weeks in Yokohama, Japan

Now
50 °F

Light rain. Partly sunny.


Feels Like: 44 °F
Forecast: 51 / 61 °F
Wind: 16 mph from Northeast

Location: Tokyo International Airport


UV Index: 5 (Moderate)

Visibility: N/A


Pressure: 29.95 "Hg

Humidity: 82%

Dew point: 45 °F

Location of YokohamaLocation

Historic Weather in Yokohama

°F

Yokohama temperature yesterday

Maximum temperature yesterday: 68 °F (at 2:30 PM)
Minimum temperature yesterday: 55 °F (at 4:30 AM)
Average temperature yesterday: 62 °F

Past Weeks' High & Low Weather Summary

 TemperatureHumidityPressure
High73 °F (Apr 16, 1:30 PM)100% (Apr 3, 3:00 PM)30.09 "Hg (Apr 3, 3:00 PM)
Low41 °F (Apr 7, 4:30 AM)16% (Apr 11, 11:48 AM)29.18 "Hg (Apr 4, 3:00 PM)
Average57 °F57%29.87 "Hg
* Reported Apr 3 3:00 PM — Apr 18 3:00 PM, Yokohama, Weather by CustomWeather, © 2014

Note: Actual official high and low records may vary slightly from our data, if they occured in-between our weather recording intervals... More about our weather records

Advertising

Historic Weather Conditions — Data for Previous 24 hours

 ConditionsComfort  
Time TempWeatherWind HumidityBarometerVisibility
3:00 PM
Apr 18
52 °FBroken clouds.15 mph77%29.95 "HgN/A
2:30 PM52 °FPartly sunny.15 mph77%29.95 "HgN/A
2:00 PM52 °FPartly sunny.15 mph77%29.95 "HgN/A
1:30 PM52 °FLight rain. Broken clouds.15 mph77%29.95 "HgN/A
1:00 PM52 °FLight rain. Partly sunny.16 mph82%29.95 "HgN/A
12:30 PM54 °FLight rain. Partly sunny.15 mph72%29.95 "HgN/A
12:00 PM54 °FLight rain. Partly sunny.15 mph77%29.95 "HgN/A
11:30 AM54 °FLight rain. Partly sunny.16 mph77%29.95 "HgN/A
11:00 AM54 °FLight rain. Partly sunny.16 mph77%29.95 "HgN/A
10:30 AM54 °FLight rain. Partly sunny.16 mph77%29.98 "HgN/A
10:00 AM54 °FLight rain. Broken clouds.17 mph77%29.98 "HgN/A
9:30 AM54 °FLight rain. Broken clouds.17 mph77%29.95 "HgN/A
9:00 AM54 °FLight rain. Broken clouds.17 mph77%29.95 "HgN/A
8:30 AM54 °FLight rain. Broken clouds.18 mph77%29.95 "HgN/A
8:00 AM54 °FLight rain. Partly sunny.21 mph82%29.95 "HgN/A
7:30 AM54 °FLight rain. Partly sunny.15 mph82%29.95 "HgN/A
7:00 AM55 °FLight rain. Partly sunny.13 mph72%29.95 "HgN/A
6:30 AM57 °FLight rain. Partly sunny.18 mph67%29.92 "HgN/A
6:00 AM59 °FLight rain. Partly sunny.16 mph77%29.89 "Hg6 mi
5:30 AM59 °FLight rain. Broken clouds.15 mph82%29.89 "Hg4 mi
5:00 AM59 °FPassing clouds.12 mph82%29.86 "Hg4 mi
4:30 AM59 °FPassing clouds.9 mph88%29.86 "Hg4 mi
4:00 AM61 °FClear.12 mph83%29.86 "Hg4 mi
3:30 AM61 °FClear.10 mph88%29.86 "Hg4 mi
3:00 AM61 °FClear.8 mph88%29.86 "Hg4 mi
2:00 AM61 °FClear.2 mph94%29.86 "Hg4 mi
1:30 AM61 °FClear.3 mph88%29.86 "Hg4 mi
1:00 AM61 °FClear.5 mph94%29.86 "Hg4 mi
12:30 AM61 °FClear.3 mph88%29.89 "Hg4 mi
12:00 AM63 °FClear.3 mph88%29.89 "Hg4 mi
11:30 PM
Apr 17
63 °FClear.3 mph88%29.89 "Hg4 mi
11:00 PM61 °FClear.3 mph88%29.89 "Hg4 mi
10:30 PM61 °FPassing clouds.5 mph88%29.89 "Hg4 mi
10:00 PM61 °FPassing clouds.3 mph83%29.89 "Hg4 mi
9:30 PM61 °FClear.6 mph83%29.89 "Hg4 mi
9:00 PM61 °FClear.3 mph83%29.89 "Hg4 mi
8:30 PM61 °FClear.6 mph83%29.89 "Hg4 mi
8:00 PM63 °FClear.10 mph77%29.89 "Hg4 mi
7:30 PM63 °FClear.15 mph77%29.89 "Hg4 mi
7:00 PM63 °FPassing clouds.10 mph77%29.86 "Hg4 mi
6:30 PM64 °FClear.14 mph73%29.86 "Hg4 mi
6:00 PM64 °FClear.16 mph68%29.86 "Hg5 mi
5:30 PM66 °FClear.15 mph64%29.86 "Hg5 mi
5:00 PM68 °FSunny.15 mph60%29.86 "Hg10 mi
4:30 PM68 °FSunny.15 mph56%29.86 "Hg10 mi
4:00 PM68 °FPassing clouds.16 mph56%29.86 "HgN/A
Weather by CustomWeather, © 2014

See weather overview